Satellite-Ground Cal/Val Site Overpasses Predictions

Prediction of Satellite NPP Overpassing Cal/Val Site: Antarctic Dome C

Ground Cal/Val Site Location: Latitude: -75.10, Longitude: 123.35; Satellite-Ground Site NADIR distance within 100 km.

Table of predicted overpasses for the next 14.0 days since TLE Epoch: 10/28/2022
Interval Starting Time Ending Time Minimum Distance Time Minimum Distance (km)
1 10/29/2022 07:19:58 10/29/2022 07:20:17 10/29/2022 07:20:08 74.23
2 10/31/2022 15:02:12 10/31/2022 15:02:35 10/31/2022 15:02:24 61.23
3 11/01/2022 14:43:21 11/01/2022 14:43:47 11/01/2022 14:43:34 48.07
4 11/02/2022 07:45:02 11/02/2022 07:45:22 11/02/2022 07:45:12 70.62
5 11/03/2022 07:26:09 11/03/2022 07:26:36 11/03/2022 07:26:23 37.33
6 11/05/2022 15:08:36 11/05/2022 15:08:41 11/05/2022 15:08:38 98.60
7 11/06/2022 14:49:33 11/06/2022 14:50:02 11/06/2022 14:49:47 13.16
8 11/08/2022 07:32:22 11/08/2022 07:32:52 11/08/2022 07:32:37 1.03
